Вернуться в каталог

SL-8 DEB

АктивенLEO
NORAD 21402·DEBRIS·🇷🇺 Russia

Запущен Feb 12, 1991 с Plesetsk Cosmodrome

Loading…

Ближайшие Пролёты (ближайшие 24 часа)

TLE

СвежийSource: Space-Track

Эпоха: Sep 14, 2026, 14:40 UTC

1 21402U 91009BR  26257.61127426  .00000009  00000-0  22850-3 0  9998
2 21402  74.0251 122.7187 0135793 249.7870 136.3466 12.18417622579636

Отслеживайте SL-8 DEB в реальном времени с AllMySat

Download on the App Store